Regional Weather Roundup
Issued by NWS Wakefield, VA

Home | Current Version | Previous Version | Graphics & Text | Print | Product List | Glossary On
Versions: 1 2 3 4 5 6 7 8 9 10 11 12 13 14 15 16 17 18 19 20 21 22 23 24 25 26 27
000
ASUS41 KAKQ 140515
RWRAKQ

REGIONAL WEATHER ROUNDUP
NATIONAL WEATHER SERVICE WAKEFIELD VA
1200 AM EST THU DEC 14 2017

Note: "fair" indicates few or no clouds below 12,000 feet with no
significant weather and/or obstructions to visibility. * = Denotes
station may not report precipitation (e.g., rain,snow,etc.),
thunder or fog.

VAZ042-051-052>054-056-140600-
NORTHERN VIRGINIA

CITY           SKY/WX    TMP DP  RH WIND       PRES   REMARKS
WASH NATIONAL  CLOUDY    36  16  44 S16       29.60F
DULLES         CLOUDY    33  12  41 S9        29.57F
FORT BELVOIR   CLOUDY    36  13  39 S8        29.59F
QUANTICO       CLOUDY    38  18  44 S15       29.61F
FREDERICKSBRG* CLOUDY    36  17  44 S8        29.60F
STAFFORD*      CLOUDY    34  13  41 S6        29.63F
WARRENTON      CLOUDY    36   9  32 S6        29.56F
CULPEPER*      CLOUDY    34  11  37 S5        29.58F
MANASSAS*      CLOUDY    34  13  41 S5        29.58F
LEESBURG*      CLOUDY    34  18  51 S8        29.56F
WINCHESTER     CLOUDY    30  14  51 CALM      29.52F
FRONT ROYAL*   CLOUDY    34  14  44 CALM      29.51F
LURAY*         CLOUDY    32  18  55 CALM      29.51F
$$

VAZ048-049-060>072-079>083-140600-
CENTRAL AND SOUTH CENTRAL VIRGINIA

CITY           SKY/WX    TMP DP  RH WIND       PRES   REMARKS
RICHMOND       MOCLDY    41  17  38 S20G29    29.64F
CHESTERFIELD*  NOT AVBL
PETERSBURG*    CLEAR     34  12  40 S6        29.66F
HANOVER        MOCLDY    37  14  38 S12       29.64F
TAPPAHANNOCK*  PTCLDY    36  16  44 S10       29.65F
QUINTON*       FAIR      36  16  44 S6        29.66F
CHARLOTTSVILLE CLEAR     32  14  47 S9        29.55F
GORDONSVILLE*  CLEAR     29  15  56 SW5       29.57F
ORANGE*        MOCLDY    32  14  47 CALM      29.58F
LOUISA*        PTCLDY    33  13  43 S7        29.63F
BUMPASS*       CLOUDY    35  12  38 S6        29.60F
FARMVILLE*     MOCLDY    38  19  46 S8        29.61F
CREWE*         FAIR      36  17  46 S8        29.64F
FORT PICKETT*  NOT AVBL
CHASE CITY*    FAIR      35  18  48 SW7       29.66F
CLARKSVILLE*   FAIR      36  18  48 SW10      29.67F
SOUTH HILL*    CLEAR     34  19  53 S9        29.73F
LAWRENCEVILLE* FAIR      35  16  45 S6        29.67F
EMPORIA*       CLEAR     34  18  51 SE5       29.72F
$$

VAZ088>098-140600-
SOUTHEAST VIRGINIA

CITY           SKY/WX    TMP DP  RH WIND       PRES   REMARKS
NORFOLK        PTCLDY    37  17  44 S15       29.72F
VIRGINIA BEACH PTCLDY    37  18  46 S10       29.73F
NORFOLK NAVAL  PTCLDY    38  16  40 S10G20    29.74F
WEST POINT*    PTCLDY   N/A N/A N/A S10G18    29.69F
SALUDA*        FAIR      36  16  44 S8        29.67F
NEWPORT NEWS   CLEAR     37  18  46 S16       29.71F
LANGLEY AFB    CLEAR     37  18  46 S14G22    29.70F
FORT EUSTIS    CLEAR     38  17  42 S13G21    29.68F
WILLIAMSBURG*  CLEAR     39  19  45 S16G22    29.70F
HR EXEC AP*    FAIR      34  18  52 S7        29.74F
FRANKLIN*      CLEAR     36  17  45 S10       29.73F
US460-WAKEFLD  CLEAR     34  17  50 S8        29.70F
$$

VAZ020-022-025-037-045-140600-
WEST CENTRAL AND SOUTHWEST VIRGINIA

CITY           SKY/WX    TMP DP  RH WIND       PRES   REMARKS
STAUNTON*      PTCLDY    33  14  45 S7        29.52F
WAYNESBORO*    MOCLDY    29  15  55 CALM      29.51F
HOT SPRINGS VA CLOUDY    32  11  41 W21G31    29.44F WCI  20
LYNCHBURG      PTCLDY    32  16  51 S9        29.59F
DANVILLE       CLEAR     34  17  50 S6        29.67F
SOUTH BOSTON*  FAIR      38  15  39 S9        29.67S
MARTINSVILLE   MOCLDY    34  15  45 CALM      29.68R
ROANOKE        CLOUDY    40  14  34 SW8       29.58F
BLACKSBURG     CLOUDY    40  18  42 W14G25    29.58F
DUBLIN*        CLOUDY    41  17  38 SW13G21   29.60S
MARION*        CLOUDY    38  10  32 W28G36    29.61F
HILLSVILLE*    CLOUDY    40  20  44 W20G26    29.56F
RICHLANDS*     CLOUDY    36  13  40 SW15G23   29.62F
WISE*          CLOUDY    36  19  51 SW20G25   29.64S WCI  25
ABINGDON*      CLOUDY    39  16  38 W13       29.69S
$$

MDZ021>025-VAZ099-100-140600-
SOUTHERN MARYLAND AND THE DELMARVA PENINSULA

CITY           SKY/WX    TMP DP  RH WIND       PRES   REMARKS
PATUXENT RIVER CLOUDY    37  19  48 S12G20    29.62F
BAY BRIDGE APT CLOUDY    37  19  48 S16G22    29.61F
LEONARDTOWN    CLOUDY    36  18  48 S10G17    29.64F
DOVER          PTCLDY    28  28 100 SE6       29.64F
GEORGETOWN     CLOUDY    31  26  82 S8        29.67F
EASTON         CLOUDY    37  21  50 S9        29.66F
CAMBRIDGE      MOCLDY    37  23  56 S12       29.64F
SALISBURY      CLOUDY    32  27  81 S12       29.67F WCI  23
OCEAN CITY     CLOUDY    33  28  81 SW16      29.70F WCI  23
WALLOPS ISLAND PTCLDY    32  28  85 S7        29.71F
ACCOMACK*      PTCLDY    36  23  59 S12       29.70F
$$

NCZ012>017-030>032-140600-
NORTH CENTRAL AND EASTERN NORTH CAROLINA

CITY           SKY/WX    TMP DP  RH WIND       PRES   REMARKS
ROANOKE RAPIDS FAIR      36  19  51 S8        29.73F
RALEIGH        PTCLDY    37  19  48 SW13      29.73S
ELIZABETH CITY CLOUDY    41  25  53 S16G22    29.78F
AHOSKIE*       PTCLDY    36  17  47 S7        29.75F
EDENTON*       CLOUDY    42  24  49 SW14      29.79F
CURRITUCK*     CLOUDY    40  22  50 S6        29.79F
KILL DEVIL HLS CLOUDY    39  23  53 SW6       29.80S
MANTEO         CLOUDY    39  26  59 SW10      29.82S
CAPE HATTERAS  PTCLDY    51  38  60 SW17G28   29.80F
TARBORO*       NOT AVBL
GOLDSBORO      CLOUDY    42  20  41 SW16      29.77F
WASHINGTON     CLOUDY    40  19  42 SW8       29.79F
GREENVILLE     CLOUDY    39  19  45 SW6       29.80F
NEW BERN       CLOUDY    38  26  62 SW3       29.83R
WILMINGTON     CLEAR     40  30  67 SW7       29.84S
$$

VAZ048-140600-
ELSEWHERE

CITY           SKY/WX    TMP DP  RH WIND       PRES   REMARKS
HARRISBURG PA  LGT SNOW  25  23  92 SE6       29.58F
BALTIMORE      CLOUDY    30  22  72 CALM      29.59F
ANNAPOLIS      CLOUDY    37  18  46 S9        29.59F
ANDREWS AFB    CLOUDY    35  13  39 S15G22    29.57F
PHILADELPHIA   FLURRIES  27  24  89 SE6       29.65F
HENDERSON NC   CLEAR     35  15  45 SW14G20   29.69F
GREENSBORO     CLEAR     35  17  47 SW9       29.68S
ROCKY MOUNT    CLEAR     38  21  50 S8        29.76F
$$

VAZ100-140600-
MARINE

STATION/POSITION TIME  TEMP    WIND        PRES    WAVE   SWELL
                       AIR SEA DIR/SP/G            HT/PER HT/PER
                 (UTC) (F)     (DEG/KT/KT) (MB)    (FT/S) (FT/S)
BRANDYWINE LGT   0436   33     200/ 14/ 18 1005.8F
CAPE MAY NJ      0442   31 36  220/ 11/ 15 1005.1F
LEWES DE         0448   30 42  170/  6/  8 1004.7F
15NM E FENWICK I 0450   38 52  220/ 23/ 27 1006.0F   5/ 5
OCEAN-CITY-INLET 0448   34 39  240/ 15/ 19 1006.1F
WACHAPREAGUE VA  0448   37 36  210/  9/ 15 1006.1F
THOMAS POINT MD  0500   39 44  190/ 26/ 29   N/A
GOOSES REEF MD   0500   40 45  190/ 19/ 25 1003.3    2/ 3
COVE POINT MD    0448   38     200/ 22/ 29 1003.7F
SOLOMONS ISLAND  0436   38 46  190/ 17/ 23 1003.0F
BISHOPS HEAD MD  0448   40 35  190/ 24/ 28 1003.7F
PINEY POINT MD   0436          210/ 21/ 23   N/A
POTOMAC MD       0500   39 45  190/ 19/ 23 1003.1    2/ 3
CAMBRIDGE MD     0436   38 41              1004.4F
LEWISETTA VA     0448   37 41  210/ 12/ 16 1003.9F
RAPPAHANNOCK LGT 0436          190/ 29/ 32 1006.2F
STINGRAY PT      0450   40     220/ 17/ 21 1005.4F
YORK RVR RNG VA  0436   40     210/ 22/ 27 1006.0F
YORKTOWN VA      0436   39 48  190/ 12/ 17 1005.4F
JAMESTOWN VA     0500      44  210/ 14/ 19   N/A
DOMINION TERM VA 0436   38     180/ 13/ 17 1006.6F
KIPTOPEKE VA     0436      41  200/ 24/ 28   N/A
CAPE HENRY VA    0436   38     190/ 10/ 17   N/A
WILLOUBY STN VA  0436          190/ 21/ 23 1006.0F
S CRANEY ISL VA  0436   38     200/  9/ 13 1006.9F
CAPE HENRY BUOY  0500      53                N/A     4/ 4
1ST LANDING BUOY 0500   40 48  210/ 19/ 25 1006.5    2/ 3
CAPE CHARLES BUO 0451      48                N/A     4/ 4
64NM E OF VA BCH 0450   46 58  230/ 19/ 23 1009.0F   4/ 5
DUCK PIER NC     0436   41 53  200/ 12/ 14 1008.5R
44100 DUCK FRF   0445      55                N/A     3/ 3
44056 DUCK FRF   0500      55                N/A     2/ 2
OREGON INLET NC  0436   43 42  210/ 13/ 16 1009.0F
HATTERAS NC      0436   51 50  230/ 15/ 20 1008.9F
DIAMOND SHLS NC  0450   57 74  220/ 23/ 31 1009.0F   5/ 7   3/ 7
CAPE LOOKOUT NC  0500          220/ 16/ 23 1009.4F
$$




USA.gov is the U.S. government's official web portal to all federal, state and local government web resources and services.